Year,Month,Day,Hour,Minute,Value (Times are PST for temperature in C)
2012,09,26,00,00,9.70
2012,09,26,00,01,9.70
2012,09,26,00,02,9.70
2012,09,26,00,03,9.70
2012,09,26,00,04,9.70
2012,09,26,00,05,9.60
2012,09,26,00,06,9.60
2012,09,26,00,07,9.60
2012,09,26,00,08,9.50
2012,09,26,00,09,9.50
2012,09,26,00,10,9.40
2012,09,26,00,11,9.40
2012,09,26,00,12,9.40
2012,09,26,00,13,9.40
2012,09,26,00,14,9.40
2012,09,26,00,15,9.30
2012,09,26,00,16,9.30
2012,09,26,00,17,9.30
2012,09,26,00,18,9.30
2012,09,26,00,19,9.30
2012,09,26,00,20,9.30
2012,09,26,00,21,9.30
2012,09,26,00,22,9.30
2012,09,26,00,23,9.30
2012,09,26,00,24,9.20
2012,09,26,00,25,9.20
2012,09,26,00,26,9.30
2012,09,26,00,27,9.50
2012,09,26,00,28,9.70
2012,09,26,00,29,9.90
2012,09,26,00,30,10.10
2012,09,26,00,31,10.30
2012,09,26,00,32,10.40
2012,09,26,00,33,10.60
2012,09,26,00,34,10.70
2012,09,26,00,35,10.80
2012,09,26,00,36,10.90
2012,09,26,00,37,11.00
2012,09,26,00,38,11.10
2012,09,26,00,39,11.20
2012,09,26,00,40,11.20
2012,09,26,00,41,11.30
2012,09,26,00,42,11.40
2012,09,26,00,43,11.50
2012,09,26,00,44,11.60
2012,09,26,00,45,11.70
2012,09,26,00,46,11.70
2012,09,26,00,47,11.70
2012,09,26,00,48,11.70
2012,09,26,00,49,11.70
2012,09,26,00,50,11.70
2012,09,26,00,51,11.80
2012,09,26,00,52,11.80
2012,09,26,00,53,11.70
2012,09,26,00,54,11.70
2012,09,26,00,55,11.70
2012,09,26,00,56,11.70
2012,09,26,00,57,11.80
2012,09,26,00,58,11.80
2012,09,26,00,59,11.80
2012,09,26,01,00,11.80
2012,09,26,01,01,11.80
2012,09,26,01,02,11.80
2012,09,26,01,03,11.80
2012,09,26,01,04,11.80
2012,09,26,01,05,11.70
2012,09,26,01,06,11.70
2012,09,26,01,07,11.70
2012,09,26,01,08,11.70
2012,09,26,01,09,11.70
2012,09,26,01,10,11.70
2012,09,26,01,11,11.70
2012,09,26,01,12,11.70
2012,09,26,01,13,11.70
2012,09,26,01,14,11.70
2012,09,26,01,15,11.70
2012,09,26,01,16,11.70
2012,09,26,01,17,11.70
2012,09,26,01,18,11.60
2012,09,26,01,19,11.50
2012,09,26,01,20,11.50
2012,09,26,01,21,11.40
2012,09,26,01,22,11.40
2012,09,26,01,23,11.40
2012,09,26,01,24,11.40
2012,09,26,01,25,11.40
2012,09,26,01,26,11.40
2012,09,26,01,27,11.40
2012,09,26,01,28,11.40
2012,09,26,01,29,11.40
2012,09,26,01,30,11.40
2012,09,26,01,31,11.40
2012,09,26,01,32,11.40
2012,09,26,01,33,11.40
2012,09,26,01,34,11.40
2012,09,26,01,35,11.40
2012,09,26,01,36,11.30
2012,09,26,01,37,11.30
2012,09,26,01,38,11.20
2012,09,26,01,39,11.10
2012,09,26,01,40,11.00
2012,09,26,01,41,11.00
2012,09,26,01,42,10.90
2012,09,26,01,43,10.90
2012,09,26,01,44,10.80
2012,09,26,01,45,10.80
2012,09,26,01,46,10.70
2012,09,26,01,47,10.60
2012,09,26,01,48,10.50
2012,09,26,01,49,10.40
2012,09,26,01,50,10.30
2012,09,26,01,51,10.30
2012,09,26,01,52,10.20
2012,09,26,01,53,10.10
2012,09,26,01,54,10.10
2012,09,26,01,55,10.00
2012,09,26,01,56,9.90
2012,09,26,01,57,9.80
2012,09,26,01,58,9.80
2012,09,26,01,59,9.70
2012,09,26,02,00,9.60
2012,09,26,02,01,9.50
2012,09,26,02,02,9.40
2012,09,26,02,03,9.40
2012,09,26,02,04,9.40
2012,09,26,02,05,9.30
2012,09,26,02,06,9.30
2012,09,26,02,07,9.30
2012,09,26,02,08,9.30
2012,09,26,02,09,9.30
2012,09,26,02,10,9.30
2012,09,26,02,11,9.30
2012,09,26,02,12,9.30
2012,09,26,02,13,9.40
2012,09,26,02,14,9.50
2012,09,26,02,15,9.60
2012,09,26,02,16,9.70
2012,09,26,02,17,9.80
2012,09,26,02,18,9.90
2012,09,26,02,19,10.00
2012,09,26,02,20,10.20
2012,09,26,02,21,10.30
2012,09,26,02,22,10.40
2012,09,26,02,23,10.50
2012,09,26,02,24,10.50
2012,09,26,02,25,10.60
2012,09,26,02,26,10.70
2012,09,26,02,27,10.70
2012,09,26,02,28,10.80
2012,09,26,02,29,10.80
2012,09,26,02,30,10.80
2012,09,26,02,31,10.80
2012,09,26,02,32,10.80
2012,09,26,02,33,10.90
2012,09,26,02,34,10.90
2012,09,26,02,35,10.90
2012,09,26,02,36,10.90
2012,09,26,02,37,10.90
2012,09,26,02,38,10.90
2012,09,26,02,39,10.90
2012,09,26,02,40,11.00
2012,09,26,02,41,11.00
2012,09,26,02,42,11.00
2012,09,26,02,43,11.00
2012,09,26,02,44,11.00
2012,09,26,02,45,11.10
2012,09,26,02,46,11.10
2012,09,26,02,47,11.10
2012,09,26,02,48,11.10
2012,09,26,02,49,11.10
2012,09,26,02,50,11.10
2012,09,26,02,51,11.10
2012,09,26,02,52,11.10
2012,09,26,02,53,11.10
2012,09,26,02,54,11.10
2012,09,26,02,55,11.10
2012,09,26,02,56,11.10
2012,09,26,02,57,11.10
2012,09,26,02,58,11.10
2012,09,26,02,59,11.10
2012,09,26,03,00,11.10
2012,09,26,03,01,11.10
2012,09,26,03,02,11.10
2012,09,26,03,03,11.20
2012,09,26,03,04,11.20
2012,09,26,03,05,11.20
2012,09,26,03,06,11.20
2012,09,26,03,07,11.20
2012,09,26,03,08,11.20
2012,09,26,03,09,11.20
2012,09,26,03,10,11.20
2012,09,26,03,11,11.20
2012,09,26,03,12,11.20
2012,09,26,03,13,11.20
2012,09,26,03,14,11.20
2012,09,26,03,15,11.20
2012,09,26,03,16,11.20
2012,09,26,03,17,11.20
2012,09,26,03,18,11.20
2012,09,26,03,19,11.20
2012,09,26,03,20,11.20
2012,09,26,03,21,11.10
2012,09,26,03,22,11.10
2012,09,26,03,23,11.10
2012,09,26,03,24,11.10
2012,09,26,03,25,11.10
2012,09,26,03,26,11.10
2012,09,26,03,27,11.10
2012,09,26,03,28,11.10
2012,09,26,03,29,11.10
2012,09,26,03,30,11.10
2012,09,26,03,31,11.10
2012,09,26,03,32,11.10
2012,09,26,03,33,11.10
2012,09,26,03,34,11.10
2012,09,26,03,35,11.10
2012,09,26,03,36,11.10
2012,09,26,03,37,11.10
2012,09,26,03,38,11.10
2012,09,26,03,39,11.10
2012,09,26,03,40,11.10
2012,09,26,03,41,11.10
2012,09,26,03,42,11.10
2012,09,26,03,43,11.10
2012,09,26,03,44,11.10
2012,09,26,03,45,11.10
2012,09,26,03,46,11.00
2012,09,26,03,47,11.00
2012,09,26,03,48,11.00
2012,09,26,03,49,11.00
2012,09,26,03,50,11.00
2012,09,26,03,51,11.00
2012,09,26,03,52,11.00
2012,09,26,03,53,11.00
2012,09,26,03,54,11.00
2012,09,26,03,55,11.00
2012,09,26,03,56,11.00
2012,09,26,03,57,11.00
2012,09,26,03,58,11.00
2012,09,26,03,59,11.00
2012,09,26,04,00,11.00
2012,09,26,04,01,11.00
2012,09,26,04,02,11.00
2012,09,26,04,03,11.00
2012,09,26,04,04,11.00
2012,09,26,04,05,11.00
2012,09,26,04,06,11.00
2012,09,26,04,07,11.00
2012,09,26,04,08,11.00
2012,09,26,04,09,11.00
2012,09,26,04,10,11.00
2012,09,26,04,11,11.00
2012,09,26,04,12,11.00
2012,09,26,04,13,10.90
2012,09,26,04,14,10.90
2012,09,26,04,15,10.90
2012,09,26,04,16,10.90
2012,09,26,04,17,10.90
2012,09,26,04,18,10.90
2012,09,26,04,19,10.90
2012,09,26,04,20,10.90
2012,09,26,04,21,10.90
2012,09,26,04,22,10.80
2012,09,26,04,23,10.80
2012,09,26,04,24,10.80
2012,09,26,04,25,10.80
2012,09,26,04,26,10.80
2012,09,26,04,27,10.80
2012,09,26,04,28,10.80
2012,09,26,04,29,10.80
2012,09,26,04,30,10.80
2012,09,26,04,31,10.80
2012,09,26,04,32,10.80
2012,09,26,04,33,10.80
2012,09,26,04,34,10.80
2012,09,26,04,35,10.80
2012,09,26,04,36,10.80
2012,09,26,04,37,10.80
2012,09,26,04,38,10.70
2012,09,26,04,39,10.70
2012,09,26,04,40,10.70
2012,09,26,04,41,10.70
2012,09,26,04,42,10.70
2012,09,26,04,43,10.70
2012,09,26,04,44,10.70
2012,09,26,04,45,10.70
2012,09,26,04,46,10.70
2012,09,26,04,47,10.70
2012,09,26,04,48,10.70
2012,09,26,04,49,10.70
2012,09,26,04,50,10.70
2012,09,26,04,51,10.70
2012,09,26,04,52,10.70
2012,09,26,04,53,10.70
2012,09,26,04,54,10.80
2012,09,26,04,55,10.80
2012,09,26,04,56,10.80
2012,09,26,04,57,10.80
2012,09,26,04,58,10.80
2012,09,26,04,59,10.80
2012,09,26,05,00,10.80
2012,09,26,05,01,10.80
2012,09,26,05,02,10.80
2012,09,26,05,03,10.80
2012,09,26,05,04,10.80
2012,09,26,05,05,10.70
2012,09,26,05,06,10.70
2012,09,26,05,07,10.70
2012,09,26,05,08,10.70
2012,09,26,05,09,10.70
2012,09,26,05,10,10.70
2012,09,26,05,11,10.70
2012,09,26,05,12,10.70
2012,09,26,05,13,10.70
2012,09,26,05,14,10.70
2012,09,26,05,15,10.70
2012,09,26,05,16,10.70
2012,09,26,05,17,10.60
2012,09,26,05,18,10.60
2012,09,26,05,19,10.60
2012,09,26,05,20,10.60
2012,09,26,05,21,10.60
2012,09,26,05,22,10.60
2012,09,26,05,23,10.60
2012,09,26,05,24,10.60
2012,09,26,05,25,10.60
2012,09,26,05,26,10.60
2012,09,26,05,27,10.60
2012,09,26,05,28,10.60
2012,09,26,05,29,10.60
2012,09,26,05,30,10.60
2012,09,26,05,31,10.60
2012,09,26,05,32,10.50
2012,09,26,05,33,10.50
2012,09,26,05,34,10.50
2012,09,26,05,35,10.50
2012,09,26,05,36,10.50
2012,09,26,05,37,10.40
2012,09,26,05,38,10.40
2012,09,26,05,39,10.50
2012,09,26,05,40,10.40
2012,09,26,05,41,10.40
2012,09,26,05,42,10.40
2012,09,26,05,43,10.40
2012,09,26,05,44,10.40
2012,09,26,05,45,10.40
2012,09,26,05,46,10.40
2012,09,26,05,47,10.40
2012,09,26,05,48,10.40
2012,09,26,05,49,10.40
2012,09,26,05,50,10.40
2012,09,26,05,51,10.40
2012,09,26,05,52,10.30
2012,09,26,05,53,10.30
2012,09,26,05,54,10.30
2012,09,26,05,55,10.30
2012,09,26,05,56,10.30
2012,09,26,05,57,10.30
2012,09,26,05,58,10.30
2012,09,26,05,59,10.30
2012,09,26,06,00,10.30
2012,09,26,06,01,10.30
2012,09,26,06,02,10.30
2012,09,26,06,03,10.30
2012,09,26,06,04,10.30
2012,09,26,06,05,10.30
2012,09,26,06,06,10.30
2012,09,26,06,07,10.40
2012,09,26,06,08,10.40
2012,09,26,06,09,10.40
2012,09,26,06,10,10.40
2012,09,26,06,11,10.40
2012,09,26,06,12,10.40
2012,09,26,06,13,10.40
2012,09,26,06,14,10.40
2012,09,26,06,15,10.30
2012,09,26,06,16,10.30
2012,09,26,06,17,10.20
2012,09,26,06,18,10.20
2012,09,26,06,19,10.20
2012,09,26,06,20,10.20
2012,09,26,06,21,10.20
2012,09,26,06,22,10.10
2012,09,26,06,23,10.10
2012,09,26,06,24,10.10
2012,09,26,06,25,10.00
2012,09,26,06,26,10.00
2012,09,26,06,27,10.00
2012,09,26,06,28,9.90
2012,09,26,06,29,9.90
2012,09,26,06,30,9.90
2012,09,26,06,31,9.90
2012,09,26,06,32,9.80
2012,09,26,06,33,9.80
2012,09,26,06,34,9.80
2012,09,26,06,35,9.70
2012,09,26,06,36,9.70
2012,09,26,06,37,9.60
2012,09,26,06,38,9.50
2012,09,26,06,39,9.40
2012,09,26,06,40,9.40
2012,09,26,06,41,9.30
2012,09,26,06,42,9.30
2012,09,26,06,43,9.20
2012,09,26,06,44,9.00
2012,09,26,06,45,9.00
2012,09,26,06,46,8.90
2012,09,26,06,47,8.90
2012,09,26,06,48,8.80
2012,09,26,06,49,8.80
2012,09,26,06,50,8.80
2012,09,26,06,51,8.80
2012,09,26,06,52,8.80
2012,09,26,06,53,8.70
2012,09,26,06,54,8.70
2012,09,26,06,55,8.70
2012,09,26,06,56,8.60
2012,09,26,06,57,8.60
2012,09,26,06,58,8.60
2012,09,26,06,59,8.60
2012,09,26,07,00,8.60
2012,09,26,07,01,8.50
2012,09,26,07,02,8.50
2012,09,26,07,03,8.40
2012,09,26,07,04,8.40
2012,09,26,07,05,8.30
2012,09,26,07,06,8.30
2012,09,26,07,07,8.30
2012,09,26,07,08,8.20
2012,09,26,07,09,8.20
2012,09,26,07,10,8.20
2012,09,26,07,11,8.10
2012,09,26,07,12,8.10
2012,09,26,07,13,8.10
2012,09,26,07,14,8.00
2012,09,26,07,15,8.00
2012,09,26,07,16,8.00
2012,09,26,07,17,7.90
2012,09,26,07,18,7.90
2012,09,26,07,19,7.90
2012,09,26,07,20,7.80
2012,09,26,07,21,7.80
2012,09,26,07,22,7.80
2012,09,26,07,23,7.70
2012,09,26,07,24,7.70
2012,09,26,07,25,7.70
2012,09,26,07,26,7.70
2012,09,26,07,27,7.70
2012,09,26,07,28,7.60
2012,09,26,07,29,7.60
2012,09,26,07,30,7.60
2012,09,26,07,31,7.60
2012,09,26,07,32,7.60
2012,09,26,07,33,7.60
2012,09,26,07,34,7.50
2012,09,26,07,35,7.50
2012,09,26,07,36,7.50
2012,09,26,07,37,7.40
2012,09,26,07,38,7.40
2012,09,26,07,39,7.40
2012,09,26,07,40,7.40
2012,09,26,07,41,7.40
2012,09,26,07,42,7.40
2012,09,26,07,43,7.40
2012,09,26,07,44,7.40
2012,09,26,07,45,7.40
2012,09,26,07,46,7.40
2012,09,26,07,47,7.40
2012,09,26,07,48,7.40
2012,09,26,07,49,7.40
2012,09,26,07,50,7.40
2012,09,26,07,51,7.40
2012,09,26,07,52,7.50
2012,09,26,07,53,7.50
2012,09,26,07,54,7.60
2012,09,26,07,55,7.60
2012,09,26,07,56,7.50
2012,09,26,07,57,7.50
2012,09,26,07,58,7.50
2012,09,26,07,59,7.40
2012,09,26,08,00,7.40
2012,09,26,08,01,7.40
2012,09,26,08,02,7.30
2012,09,26,08,03,7.30
2012,09,26,08,04,7.30
2012,09,26,08,05,7.30
2012,09,26,08,06,7.30
2012,09,26,08,07,7.20
2012,09,26,08,08,7.20
2012,09,26,08,09,7.20
2012,09,26,08,10,7.20
2012,09,26,08,11,7.20
2012,09,26,08,12,7.20
2012,09,26,08,13,7.10
2012,09,26,08,14,7.10
2012,09,26,08,15,7.10
2012,09,26,08,16,7.10
2012,09,26,08,17,7.10
2012,09,26,08,18,7.10
2012,09,26,08,19,7.10
2012,09,26,08,20,7.10
2012,09,26,08,21,7.10
2012,09,26,08,22,7.10
2012,09,26,08,23,7.10
2012,09,26,08,24,7.10
2012,09,26,08,25,7.10
2012,09,26,08,26,7.10
2012,09,26,08,27,7.10
2012,09,26,08,28,7.10
2012,09,26,08,29,7.10
2012,09,26,08,30,7.10
2012,09,26,08,31,7.10
2012,09,26,08,32,7.10
2012,09,26,08,33,7.10
2012,09,26,08,34,7.10
2012,09,26,08,35,7.10
2012,09,26,08,36,7.10
2012,09,26,08,37,7.10
2012,09,26,08,38,7.10
2012,09,26,08,39,7.10
2012,09,26,08,40,7.10
2012,09,26,08,41,7.10
2012,09,26,08,42,7.10
2012,09,26,08,43,7.20
2012,09,26,08,44,7.20
2012,09,26,08,45,7.20
2012,09,26,08,46,7.30
2012,09,26,08,47,7.30
2012,09,26,08,48,7.30
2012,09,26,08,49,7.30
2012,09,26,08,50,7.30
2012,09,26,08,51,7.30
2012,09,26,08,52,7.30
2012,09,26,08,53,7.30
2012,09,26,08,54,7.30
2012,09,26,08,55,7.20
2012,09,26,08,56,7.20
2012,09,26,08,57,7.20
2012,09,26,08,58,7.20
2012,09,26,08,59,7.20
2012,09,26,09,00,7.20
2012,09,26,09,01,7.20
2012,09,26,09,02,7.20
2012,09,26,09,03,7.20
2012,09,26,09,04,7.20
2012,09,26,09,05,7.20
2012,09,26,09,06,7.20
2012,09,26,09,07,7.20
2012,09,26,09,08,7.20
2012,09,26,09,09,7.30
2012,09,26,09,10,7.30
2012,09,26,09,11,7.30
2012,09,26,09,12,7.30
2012,09,26,09,13,7.30
2012,09,26,09,14,7.30
2012,09,26,09,15,7.30
2012,09,26,09,16,7.30
2012,09,26,09,17,7.30
2012,09,26,09,18,7.30
2012,09,26,09,19,7.30
2012,09,26,09,20,7.30
2012,09,26,09,21,7.30
2012,09,26,09,22,7.30
2012,09,26,09,23,7.30
2012,09,26,09,24,7.30
2012,09,26,09,25,7.30
2012,09,26,09,26,7.30
2012,09,26,09,27,7.40
2012,09,26,09,28,7.40
2012,09,26,09,29,7.30
2012,09,26,09,30,7.30
2012,09,26,09,31,7.30
2012,09,26,09,32,7.30
2012,09,26,09,33,7.30
2012,09,26,09,34,7.30
2012,09,26,09,35,7.20
2012,09,26,09,36,7.20
2012,09,26,09,37,7.20
2012,09,26,09,38,7.20
2012,09,26,09,39,7.20
2012,09,26,09,40,7.20
2012,09,26,09,41,7.20
2012,09,26,09,42,7.10
2012,09,26,09,43,7.10
2012,09,26,09,44,7.10
2012,09,26,09,45,7.10
2012,09,26,09,46,7.10
2012,09,26,09,47,7.10
2012,09,26,09,48,7.00
2012,09,26,09,49,7.00
2012,09,26,09,50,7.00
2012,09,26,09,51,7.00
2012,09,26,09,52,7.00
2012,09,26,09,53,7.00
2012,09,26,09,54,7.00
2012,09,26,09,55,7.00
2012,09,26,09,56,7.00
2012,09,26,09,57,7.00
2012,09,26,09,58,7.00
2012,09,26,09,59,7.00
2012,09,26,10,00,7.00
2012,09,26,10,01,7.00
2012,09,26,10,02,7.00
2012,09,26,10,03,6.90
2012,09,26,10,04,6.90
2012,09,26,10,05,6.90
2012,09,26,10,06,6.90
2012,09,26,10,07,6.90
2012,09,26,10,08,6.90
2012,09,26,10,09,6.90
2012,09,26,10,10,6.90
2012,09,26,10,11,6.90
2012,09,26,10,12,6.90
2012,09,26,10,13,7.00
2012,09,26,10,14,7.10
2012,09,26,10,15,7.10
2012,09,26,10,16,7.20
2012,09,26,10,17,7.30
2012,09,26,10,18,7.40
2012,09,26,10,19,7.40
2012,09,26,10,20,7.50
2012,09,26,10,21,7.50
2012,09,26,10,22,7.50
2012,09,26,10,23,7.50
2012,09,26,10,24,7.60
2012,09,26,10,25,7.70
2012,09,26,10,26,7.80
2012,09,26,10,27,7.90
2012,09,26,10,28,8.00
2012,09,26,10,29,8.00
2012,09,26,10,30,8.10
2012,09,26,10,31,8.20
2012,09,26,10,32,8.20
2012,09,26,10,33,8.20
2012,09,26,10,34,8.10
2012,09,26,10,35,8.00
2012,09,26,10,36,7.80
2012,09,26,10,37,7.70
2012,09,26,10,38,7.60
2012,09,26,10,39,7.60
2012,09,26,10,40,7.50
2012,09,26,10,41,7.50
2012,09,26,10,42,7.40
2012,09,26,10,43,7.40
2012,09,26,10,44,7.40
2012,09,26,10,45,7.40
2012,09,26,10,46,7.40
2012,09,26,10,47,7.40
2012,09,26,10,48,7.40
2012,09,26,10,49,7.50
2012,09,26,10,50,7.50
2012,09,26,10,51,7.50
2012,09,26,10,52,7.50
2012,09,26,10,53,7.50
2012,09,26,10,54,7.50
2012,09,26,10,55,7.50
2012,09,26,10,56,7.50
2012,09,26,10,57,7.60
2012,09,26,10,58,7.60
2012,09,26,10,59,7.60
2012,09,26,11,00,7.60
2012,09,26,11,01,7.60
2012,09,26,11,02,7.60
2012,09,26,11,03,7.60
2012,09,26,11,04,7.60
2012,09,26,11,05,7.60
2012,09,26,11,06,7.60
2012,09,26,11,07,7.60
2012,09,26,11,08,7.60
2012,09,26,11,09,7.60
2012,09,26,11,10,7.60
2012,09,26,11,11,7.60
2012,09,26,11,12,7.60
2012,09,26,11,13,7.60
2012,09,26,11,14,7.60
2012,09,26,11,15,7.60
2012,09,26,11,16,7.60
2012,09,26,11,17,7.60
2012,09,26,11,18,7.60
2012,09,26,11,19,7.60
2012,09,26,11,20,7.60
2012,09,26,11,21,7.60
2012,09,26,11,22,7.70
2012,09,26,11,23,7.70
2012,09,26,11,24,7.70
2012,09,26,11,25,7.70
2012,09,26,11,26,7.70
2012,09,26,11,27,7.70
2012,09,26,11,28,7.80
2012,09,26,11,29,7.80
2012,09,26,11,30,7.80
2012,09,26,11,31,7.80
2012,09,26,11,32,7.90
2012,09,26,11,33,7.90
2012,09,26,11,34,7.90
2012,09,26,11,35,7.90
2012,09,26,11,36,7.90
2012,09,26,11,37,7.90
2012,09,26,11,38,7.90
2012,09,26,11,39,8.00
2012,09,26,11,40,8.00
2012,09,26,11,41,8.00
2012,09,26,11,42,8.00
2012,09,26,11,43,8.10
2012,09,26,11,44,8.10
2012,09,26,11,45,8.10
2012,09,26,11,46,8.10
2012,09,26,11,47,8.10
2012,09,26,11,48,8.10
2012,09,26,11,49,8.10
2012,09,26,11,50,8.10
2012,09,26,11,51,8.10
2012,09,26,11,52,8.10
2012,09,26,11,53,8.10
2012,09,26,11,54,8.20
2012,09,26,11,55,8.20
2012,09,26,11,56,8.20
2012,09,26,11,57,8.20
2012,09,26,11,58,8.20
2012,09,26,11,59,8.20
2012,09,26,12,00,8.30
2012,09,26,12,01,8.30
2012,09,26,12,02,8.30
2012,09,26,12,03,8.40
2012,09,26,12,04,8.40
2012,09,26,12,05,8.40
2012,09,26,12,06,8.40
2012,09,26,12,07,8.50
2012,09,26,12,08,8.50
2012,09,26,12,09,8.60
2012,09,26,12,10,8.70
2012,09,26,12,11,8.70
2012,09,26,12,12,8.80
2012,09,26,12,13,8.80
2012,09,26,12,14,8.90
2012,09,26,12,15,8.90
2012,09,26,12,16,9.00
2012,09,26,12,17,9.00
2012,09,26,12,18,9.10
2012,09,26,12,19,9.10
2012,09,26,12,20,9.10
2012,09,26,12,21,9.20
2012,09,26,12,22,9.20
2012,09,26,12,23,9.30
2012,09,26,12,24,9.30
2012,09,26,12,25,9.30
2012,09,26,12,26,9.30
2012,09,26,12,27,9.30
2012,09,26,12,28,9.30
2012,09,26,12,29,9.30
2012,09,26,12,30,9.40
2012,09,26,12,31,9.40
2012,09,26,12,32,9.40
2012,09,26,12,33,9.40
2012,09,26,12,34,9.40
2012,09,26,12,35,9.40
2012,09,26,12,36,9.40
2012,09,26,12,37,9.40
2012,09,26,12,38,9.50
2012,09,26,12,39,9.50
2012,09,26,12,40,9.60
2012,09,26,12,41,9.60
2012,09,26,12,42,9.70
2012,09,26,12,43,9.70
2012,09,26,12,44,9.80
2012,09,26,12,45,9.80
2012,09,26,12,46,9.80
2012,09,26,12,47,9.90
2012,09,26,12,48,9.90
2012,09,26,12,49,9.90
2012,09,26,12,50,9.90
2012,09,26,12,51,9.90
2012,09,26,12,52,9.90
2012,09,26,12,53,9.90
2012,09,26,12,54,9.90
2012,09,26,12,55,9.90
2012,09,26,12,56,10.00
2012,09,26,12,57,10.00
2012,09,26,12,58,10.10
2012,09,26,12,59,10.10
2012,09,26,13,00,10.10
2012,09,26,13,01,10.10
2012,09,26,13,02,10.20
2012,09,26,13,03,10.20
2012,09,26,13,04,10.20
2012,09,26,13,05,10.20
2012,09,26,13,06,10.20
2012,09,26,13,07,10.30
2012,09,26,13,08,10.30
2012,09,26,13,09,10.30
2012,09,26,13,10,10.30
2012,09,26,13,11,10.30
2012,09,26,13,12,10.30
2012,09,26,13,13,10.40
2012,09,26,13,14,10.40
2012,09,26,13,15,10.40
2012,09,26,13,16,10.50
2012,09,26,13,17,10.50
2012,09,26,13,18,10.60
2012,09,26,13,19,10.60
2012,09,26,13,20,10.70
2012,09,26,13,21,10.70
2012,09,26,13,22,10.80
2012,09,26,13,23,10.90
2012,09,26,13,24,10.90
2012,09,26,13,25,11.00
2012,09,26,13,26,11.10
2012,09,26,13,27,11.10
2012,09,26,13,28,11.20
2012,09,26,13,29,11.30
2012,09,26,13,30,11.30
2012,09,26,13,31,11.40
2012,09,26,13,32,11.40
2012,09,26,13,33,11.40
2012,09,26,13,34,11.50
2012,09,26,13,35,11.50
2012,09,26,13,36,11.60
2012,09,26,13,37,11.70
2012,09,26,13,38,11.70
2012,09,26,13,39,11.80
2012,09,26,13,40,11.80
2012,09,26,13,41,11.70
2012,09,26,13,42,11.70
2012,09,26,13,43,11.70
2012,09,26,13,44,11.70
2012,09,26,13,45,11.70
2012,09,26,13,46,11.70
2012,09,26,13,47,11.80
2012,09,26,13,48,11.80
2012,09,26,13,49,11.80
2012,09,26,13,50,11.90
2012,09,26,13,51,11.90
2012,09,26,13,52,12.00
2012,09,26,13,53,12.00
2012,09,26,13,54,12.00
2012,09,26,13,55,12.00
2012,09,26,13,56,12.00
2012,09,26,13,57,12.10
2012,09,26,13,58,12.10
2012,09,26,13,59,12.20
2012,09,26,14,00,12.20
2012,09,26,14,01,12.30
2012,09,26,14,02,12.30
2012,09,26,14,03,12.30
2012,09,26,14,04,12.30
2012,09,26,14,05,12.40
2012,09,26,14,06,12.40
2012,09,26,14,07,12.50
2012,09,26,14,08,12.50
2012,09,26,14,09,12.50
2012,09,26,14,10,12.50
2012,09,26,14,11,12.40
2012,09,26,14,12,12.40
2012,09,26,14,13,12.40
2012,09,26,14,14,12.50
2012,09,26,14,15,12.50
2012,09,26,14,16,12.50
2012,09,26,14,17,12.60
2012,09,26,14,18,12.60
2012,09,26,14,19,12.60
2012,09,26,14,20,12.70
2012,09,26,14,21,12.70
2012,09,26,14,22,12.70
2012,09,26,14,23,12.70
2012,09,26,14,24,12.80
2012,09,26,14,25,12.80
2012,09,26,14,26,12.80
2012,09,26,14,27,12.90
2012,09,26,14,28,12.90
2012,09,26,14,29,12.90
2012,09,26,14,30,13.00
2012,09,26,14,31,13.00
2012,09,26,14,32,13.00
2012,09,26,14,33,13.10
2012,09,26,14,34,13.10
2012,09,26,14,35,13.20
2012,09,26,14,36,13.30
2012,09,26,14,37,13.30
2012,09,26,14,38,13.30
2012,09,26,14,39,13.30
2012,09,26,14,40,13.30
2012,09,26,14,41,13.30
2012,09,26,14,42,13.40
2012,09,26,14,43,13.40
2012,09,26,14,44,13.50
2012,09,26,14,45,13.50
2012,09,26,14,46,13.60
2012,09,26,14,47,13.60
2012,09,26,14,48,13.70
2012,09,26,14,49,13.70
2012,09,26,14,50,13.70
2012,09,26,14,51,13.70
2012,09,26,14,52,13.60
2012,09,26,14,53,13.60
2012,09,26,14,54,13.50
2012,09,26,14,55,13.50
2012,09,26,14,56,13.40
2012,09,26,14,57,13.40
2012,09,26,14,58,13.40
2012,09,26,14,59,13.30
2012,09,26,15,00,13.30
2012,09,26,15,01,13.30
2012,09,26,15,02,13.30
2012,09,26,15,03,13.30
2012,09,26,15,04,13.40
2012,09,26,15,05,13.40
2012,09,26,15,06,13.40
2012,09,26,15,07,13.40
2012,09,26,15,08,13.40
2012,09,26,15,09,13.40
2012,09,26,15,10,13.40
2012,09,26,15,11,13.40
2012,09,26,15,12,13.40
2012,09,26,15,13,13.40
2012,09,26,15,14,13.40
2012,09,26,15,15,13.40
2012,09,26,15,16,13.50
2012,09,26,15,17,13.50
2012,09,26,15,18,13.50
2012,09,26,15,19,13.50
2012,09,26,15,20,13.50
2012,09,26,15,21,13.50
2012,09,26,15,22,13.50
2012,09,26,15,23,13.40
2012,09,26,15,24,13.40
2012,09,26,15,25,13.50
2012,09,26,15,26,13.50
2012,09,26,15,27,13.60
2012,09,26,15,28,13.60
2012,09,26,15,29,13.60
2012,09,26,15,30,13.70
2012,09,26,15,31,13.70
2012,09,26,15,32,13.80
2012,09,26,15,33,13.90
2012,09,26,15,34,13.90
2012,09,26,15,35,14.00
2012,09,26,15,36,14.00
2012,09,26,15,37,14.10
2012,09,26,15,38,14.10
2012,09,26,15,39,14.10
2012,09,26,15,40,14.10
2012,09,26,15,41,14.10
2012,09,26,15,42,14.10
2012,09,26,15,43,14.10
2012,09,26,15,44,14.10
2012,09,26,15,45,14.10
2012,09,26,15,46,14.10
2012,09,26,15,47,14.10
2012,09,26,15,48,14.10
2012,09,26,15,49,14.10
2012,09,26,15,50,14.10
2012,09,26,15,51,14.10
2012,09,26,15,52,14.10
2012,09,26,15,53,14.10
2012,09,26,15,54,14.10
2012,09,26,15,55,14.20
2012,09,26,15,56,14.20
2012,09,26,15,57,14.20
2012,09,26,15,58,14.20
2012,09,26,15,59,14.20
2012,09,26,16,00,14.20
2012,09,26,16,01,14.20
2012,09,26,16,02,14.30
2012,09,26,16,03,14.30
2012,09,26,16,04,14.30
2012,09,26,16,05,14.30
2012,09,26,16,06,14.30
2012,09,26,16,07,14.30
2012,09,26,16,08,14.30
2012,09,26,16,09,14.30
2012,09,26,16,10,14.30
2012,09,26,16,11,14.40
2012,09,26,16,12,14.40
2012,09,26,16,13,14.50
2012,09,26,16,14,14.50
2012,09,26,16,15,14.50
2012,09,26,16,16,14.60
2012,09,26,16,17,14.50
2012,09,26,16,18,14.50
2012,09,26,16,19,14.40
2012,09,26,16,20,14.40
2012,09,26,16,21,14.30
2012,09,26,16,22,14.30
2012,09,26,16,23,14.30
2012,09,26,16,24,14.30
2012,09,26,16,25,14.30
2012,09,26,16,26,14.30
2012,09,26,16,27,14.30
2012,09,26,16,28,14.30
2012,09,26,16,29,14.30
2012,09,26,16,30,14.20
2012,09,26,16,31,14.20
2012,09,26,16,32,14.20
2012,09,26,16,33,14.20
2012,09,26,16,34,14.20
2012,09,26,16,35,14.20
2012,09,26,16,36,14.20
2012,09,26,16,37,14.30
2012,09,26,16,38,14.30
2012,09,26,16,39,14.30
2012,09,26,16,40,14.40
2012,09,26,16,41,14.40
2012,09,26,16,42,14.40
2012,09,26,16,43,14.40
2012,09,26,16,44,14.40
2012,09,26,16,45,14.50
2012,09,26,16,46,14.50
2012,09,26,16,47,14.50
2012,09,26,16,48,14.60
2012,09,26,16,49,14.60
2012,09,26,16,50,14.60
2012,09,26,16,51,14.60
2012,09,26,16,52,14.60
2012,09,26,16,53,14.70
2012,09,26,16,54,14.70
2012,09,26,16,55,14.70
2012,09,26,16,56,14.70
2012,09,26,16,57,14.70
2012,09,26,16,58,14.70
2012,09,26,16,59,14.80
2012,09,26,17,00,14.80
2012,09,26,17,01,14.80
2012,09,26,17,02,14.70
2012,09,26,17,03,14.70
2012,09,26,17,04,14.60
2012,09,26,17,05,14.60
2012,09,26,17,06,14.50
2012,09,26,17,07,14.50
2012,09,26,17,08,14.40
2012,09,26,17,09,14.40
2012,09,26,17,10,14.40
2012,09,26,17,11,14.30
2012,09,26,17,12,14.30
2012,09,26,17,13,14.30
2012,09,26,17,14,14.30
2012,09,26,17,15,14.30
2012,09,26,17,16,14.20
2012,09,26,17,17,14.20
2012,09,26,17,18,14.20
2012,09,26,17,19,14.20
2012,09,26,17,20,14.10
2012,09,26,17,21,14.10
2012,09,26,17,22,14.00
2012,09,26,17,23,14.00
2012,09,26,17,24,13.90
2012,09,26,17,25,13.90
2012,09,26,17,26,13.80
2012,09,26,17,27,13.80
2012,09,26,17,28,13.80
2012,09,26,17,29,13.80
2012,09,26,17,30,13.80
2012,09,26,17,31,13.80
2012,09,26,17,32,13.80
2012,09,26,17,33,13.80
2012,09,26,17,34,13.80
2012,09,26,17,35,13.70
2012,09,26,17,36,13.70
2012,09,26,17,37,13.70
2012,09,26,17,38,13.70